Zurück zum Katalog

CZ-6A DEB

AktivPO
NORAD 60970·DEBRIS·🇨🇳 China

Gestartet Aug 6, 2024 von Taiyuan Satellite Launch Center

Loading…

Nächste Überflüge (nächste 24 Stunden)

TLE

AktuellSource: Space-Track

Epoche: Sep 14, 2026, 07:48 UTC

1 60970U 24140LV  26257.32536942  .00000519  00000-0  24197-3 0  9990
2 60970  88.9928 264.6896 0054962 247.2980 112.2394 14.18309294107693

Verfolge CZ-6A DEB in Echtzeit mit AllMySat

Download on the App Store